Terug naar catalogus

GONETS M 20

ActiefCommunicatiePO
NORAD 47227·PAYLOAD·🇷🇺 Russia

Gelanceerd Dec 3, 2020 vanaf Plesetsk Cosmodrome

Loading…

Volgende Passages (komende 24 uur)

TLE

VersSource: Space-Track

Epoch: Sep 14, 2026, 14:22 UTC

1 47227U 20091A   26257.59869637  .00000044  00000-0  24830-3 0  9997
2 47227  82.4986 246.8466 0020712 349.4794  10.5850 12.42896376262185

Volg GONETS M 20 in realtime met AllMySat

Download on the App Store